Home   Weather   Coeur d'Alene   Past weeks
Flag for USA

Past Weather in Coeur d'Alene, Idaho, USA — Yesterday and Last 2 Weeks

Now
73 °F

Sunny.


Feels Like: 76 °F
Forecast: 73 / 48 °F
Wind: 14 mph from Southwest

Location: Coeur d'Alene Weather Reporting System

Current Time: Jul 19, 2019 at 4:33:44 pm

Latest Report: Jul 19, 2019 at 3:56 pm


Visibility: 10 mi

Pressure: 30.05 "Hg (27.86 "Hg at 655m altitude)

Humidity: 25%

Dew Point: 35 °F

Location of Coeur d'AleneLocation

Past Weather in Coeur d'Alene — Graph

°F

Coeur d'Alene Temperature Yesterday

Maximum temperature yesterday: 76 °F (at 3:56 pm)
Minimum temperature yesterday: 53 °F (at 11:56 pm)
Average temperature yesterday: 65 °F

High & Low Weather Summary for the Past Weeks

 TemperatureHumidityPressure
High86 °F (Jul 13, 2:56 pm)93% (Jul 5, 4:56 am)30.14 "Hg (Jul 5, 4:56 am)
Low47 °F (Jul 19, 5:56 am)18% (Jul 18, 3:56 pm)29.82 "Hg (Jul 17, 11:56 pm)
Average67 °F56%29.99 "Hg
* Reported Jul 4 2:56 pm — Jul 19 2:56 pm, Coeur d'Alene. Weather by CustomWeather, © 2019

Note: Actual official high and low records may vary slightly from our data, if they occured in-between our weather recording intervals... More about our weather records

Advertising

Coeur d'Alene Weather History for the Previous 24 Hours

Scroll right to see more
 ConditionsComfort  
Time TempWeatherWind HumidityBarometerVisibility
2:56 pm
Fri, Jul 19
72 °FPassing clouds.16 mph29%30.05 "Hg10 mi
1:56 pm71 °FScattered clouds.14 mph28%30.04 "Hg10 mi
1:31 pm70 °FPassing clouds.10 mph29%30.03 "Hg10 mi
12:56 pm68 °FPartly sunny.13 mph30%30.06 "Hg10 mi
11:56 am68 °FPassing clouds.7 mph35%30.06 "Hg10 mi
10:56 am64 °FSunny.9 mph43%30.06 "Hg10 mi
9:56 am60 °FSunny.7 mph47%30.06 "Hg10 mi
8:56 am56 °FSunny.8 mph53%30.06 "Hg10 mi
7:56 am54 °FScattered clouds.5 mph53%30.03 "Hg10 mi
6:56 am52 °FSunny.5 mph55%30.01 "Hg10 mi
5:56 am47 °FSunny.3 mph66%29.99 "Hg10 mi
4:56 am48 °FClear.6 mph61%29.96 "Hg10 mi
3:56 am49 °FClear.5 mph61%29.94 "Hg10 mi
2:56 am50 °FClear.3 mph63%29.92 "Hg10 mi
1:56 am56 °FClear.8 mph58%29.89 "Hg10 mi
12:56 am57 °FClear.8 mph55%29.89 "Hg10 mi
11:56 pm
Thu, Jul 18
53 °FClear.7 mph52%29.90 "Hg10 mi
10:56 pm57 °FClear.No wind44%29.90 "Hg10 mi
9:56 pm58 °FClear.3 mph38%29.90 "Hg10 mi
8:56 pm61 °FClear.5 mph34%29.89 "Hg10 mi
7:56 pm69 °FSunny.10 mph21%29.86 "Hg10 mi
6:56 pm72 °FSunny.10 mph23%29.86 "Hg10 mi
5:56 pm75 °FSunny.16 mph18%29.85 "Hg10 mi
4:56 pm75 °FSunny.23 mph18%29.86 "Hg10 mi
Weather by CustomWeather, © 2019

See weather overview